Weather History for Sacramento International, CA

Change the Weather History Date:

Thursday, January 10, 2013

  Actual Average Record
Temperature  
Mean Temperature 40 °F -  
Max Temperature 50 °F 51 °F 66 °F (1962)
Min Temperature 30 °F 39 °F 25 °F (1949)
Degree Days  
Heating Degree Days 25    
Moisture  
Dew Point 32 °F    
Average Humidity 74    
Maximum Humidity 92    
Minimum Humidity 50    
Precipitation  
Precipitation 0.00 in - - ()
Sea Level Pressure  
Sea Level Pressure 30.10 in    
Wind  
Wind Speed 3 mph (WNW)    
Max Wind Speed 12 mph    
Max Gust Speed -    
Visibility 10 miles    
Events      
Averages and records for this station are not official NWS values.
T = Trace of Precipitation, MM = Missing Value Source: NWS Daily Summary

Daily Weather History Graph

Daily Weather History Graph

Search for Another Location

Airport:

Trip Planner

Search our weather history database for the weather conditions in past years. The results will help you decide how hot, cold, wet, or windy it might be!

Date:

Astronomy

Jan. 10, 2013 Rise Set
Actual Time 7:24 AM PST 5:04 PM PST
Civil Twilight 6:54 AM PST 5:33 PM PST
Nautical Twilight 6:21 AM PST 6:06 PM PST
Astronomical Twilight 5:49 AM PST 6:38 PM PST
Moon 6:09 AM PST (1/10) 4:17 PM PST (1/10)
Length of Visible Light 10h 38m
Length of Day
9h 40m
Waning Crescent, 1% of the Moon is Illuminated
Jan 10
Waning Crescent
Jan 11
New
Jan 18
First Quarter
Jan 26
Full
Feb 3
Last Quarter

Hourly Weather History & Observations

Time (PST) Temp. Windchill Dew Point Humidity Pressure Visibility Wind Dir Wind Speed Gust Speed Precip Events Conditions
12:53 AM 41.0 °F - 30.9 °F 67% 30.03 in 10.0 mi Calm Calm - N/A   Clear
1:53 AM 37.0 °F 34.5 °F 32.0 °F 82% 30.05 in 10.0 mi South 3.5 mph - N/A   Clear
2:53 AM 35.1 °F 32.2 °F 30.9 °F 85% 30.06 in 10.0 mi SW 3.5 mph - N/A   Clear
3:53 AM 33.1 °F 30.0 °F 30.0 °F 89% 30.06 in 10.0 mi East 3.5 mph - N/A   Clear
4:53 AM 34.0 °F 31.0 °F 30.0 °F 85% 30.06 in 10.0 mi SE 3.5 mph - N/A   Clear
5:53 AM 32.0 °F 28.7 °F 30.0 °F 92% 30.06 in 10.0 mi ESE 3.5 mph - N/A   Clear
6:53 AM 30.0 °F - 28.0 °F 92% 30.08 in 10.0 mi Calm Calm - N/A   Clear
7:53 AM 33.1 °F - 30.9 °F 92% 30.09 in 10.0 mi Calm Calm - N/A   Clear
8:53 AM 37.0 °F - 33.1 °F 86% 30.11 in 10.0 mi Calm Calm - N/A   Partly Cloudy
9:53 AM 41.0 °F - 35.1 °F 79% 30.12 in 10.0 mi Calm Calm - N/A   Clear
10:53 AM 46.0 °F - 36.0 °F 68% 30.12 in 10.0 mi Calm Calm - N/A   Clear
11:53 AM 46.9 °F - 37.0 °F 68% 30.10 in 10.0 mi NNW 4.6 mph - N/A   Clear
12:53 PM 48.9 °F - 37.0 °F 64% 30.08 in 10.0 mi NNW 6.9 mph - N/A   Clear
1:53 PM 50.0 °F - 34.0 °F 54% 30.09 in 10.0 mi NNW 10.4 mph - N/A   Clear
2:53 PM 50.0 °F - 33.1 °F 52% 30.09 in 10.0 mi NW 11.5 mph - N/A   Clear
3:53 PM 48.9 °F - 30.9 °F 50% 30.09 in 10.0 mi NW 8.1 mph - N/A   Clear
4:53 PM 44.1 °F 40.8 °F 30.0 °F 58% 30.09 in 10.0 mi NNW 5.8 mph - N/A   Clear
5:53 PM 44.1 °F 41.5 °F 30.0 °F 58% 30.10 in 10.0 mi NNW 4.6 mph - N/A   Clear
6:53 PM 39.0 °F 36.8 °F 30.9 °F 73% 30.12 in 10.0 mi SSW 3.5 mph - N/A   Clear
7:53 PM 39.0 °F 34.8 °F 30.9 °F 73% 30.12 in 10.0 mi WSW 5.8 mph - N/A   Clear
8:53 PM 39.9 °F - 32.0 °F 73% 30.13 in 10.0 mi Calm Calm - N/A   Clear
9:53 PM 37.9 °F 35.5 °F 30.0 °F 73% 30.14 in 10.0 mi WSW 3.5 mph - N/A   Clear
10:53 PM 34.0 °F - 30.0 °F 85% 30.15 in 10.0 mi Calm Calm - N/A   Clear
11:53 PM 36.0 °F 33.3 °F 30.9 °F 82% 30.16 in 10.0 mi ESE 3.5 mph - N/A   Clear